Weather History for Comox, BC

Change the Weather History Date:

Tuesday, May 14, 2013

  Actual Average Record
Temperature  
Mean Temperature 52 °F -  
Max Temperature 59 °F 65 °F 73 °F (1997)
Min Temperature 44 °F 48 °F 42 °F (1999)
Degree Days  
Heating Degree Days 14    
Growing Degree Days 2 (Base 50)    
Moisture  
Dew Point 44 °F    
Average Humidity 74    
Maximum Humidity 93    
Minimum Humidity 53    
Precipitation  
Precipitation 0.00 in 0.05 in - ()
Sea Level Pressure  
Sea Level Pressure 30.14 in    
Wind  
Wind Speed 6 mph ()    
Max Wind Speed 20 mph    
Max Gust Speed 20 mph    
Visibility 19.2 miles    
Events Rain    
Averages and records for this station are not official NWS values.
T = Trace of Precipitation, MM = Missing Value Source: Averaged Metar Reports

Daily Weather History Graph

Daily Weather History Graph

Search for Another Location

Airport:

Trip Planner

Search our weather history database for the weather conditions in past years. The results will help you decide how hot, cold, wet, or windy it might be!

Date:

Astronomy

May. 14, 2013 Rise Set
Actual Time 5:35 AM PDT 8:57 PM PDT
Civil Twilight 4:56 AM PDT 9:36 PM PDT
Nautical Twilight 4:05 AM PDT 10:28 PM PDT
Astronomical Twilight 2:57 AM PDT 11:37 PM PDT
Moon 9:22 AM PDT (5/14) 12:08 AM PDT (5/14)
Length of Visible Light 16h 39m
Length of Day
15h 21m
Waxing Crescent, 19% of the Moon is Illuminated
May 14
Waxing Crescent
May 17
First Quarter
May 24
Full
May 31
Last Quarter
Jun 8
New

Hourly Weather History & Observations

Time (PDT) Temp. Windchill Dew Point Humidity Pressure Visibility Wind Dir Wind Speed Gust Speed Precip Events Conditions
12:00 AM 46.4 °F 44.3 °F 41.0 °F 81% 30.10 in 20.0 mi SSW 4.6 mph - N/A   Partly Cloudy
1:00 AM 46.4 °F - 41.0 °F 81% 30.12 in 20.0 mi Calm Calm - N/A   Partly Cloudy
2:00 AM 46.4 °F - 41.0 °F 81% 30.13 in 20.0 mi NNE 2.3 mph - N/A   Partly Cloudy
3:00 AM 46.4 °F - 42.8 °F 87% 30.14 in 20.0 mi Calm Calm - N/A   Scattered Clouds
4:00 AM 48.2 °F - 42.8 °F 82% 30.14 in 20.0 mi Calm Calm - N/A   Mostly Cloudy
5:00 AM 44 °F - 42 °F 92% 30.15 in 19 mi SSW 3.5 mph - -   Scattered Clouds
5:00 AM 44.6 °F - 42.8 °F 93% 30.15 in 20.0 mi SW 2.3 mph - N/A   Mostly Cloudy
6:00 AM 44.6 °F - 42.8 °F 93% 30.16 in 20.0 mi Calm Calm - N/A   Mostly Cloudy
7:00 AM 46.4 °F - 44.6 °F 93% 30.17 in 20.0 mi South 2.3 mph - N/A   Mostly Cloudy
8:00 AM 50.0 °F - 44.6 °F 82% 30.17 in 20.0 mi Calm Calm - N/A   Overcast
9:00 AM 53.6 °F - 46.4 °F 77% 30.17 in 20.0 mi East 5.8 mph - N/A   Mostly Cloudy
10:00 AM 55.4 °F - 44.6 °F 67% 30.17 in 20.0 mi SE 8.1 mph - N/A   Scattered Clouds
11:00 AM 57.2 °F - 44.6 °F 63% 30.17 in 20.0 mi SE 9.2 mph - N/A   Mostly Cloudy
12:00 PM 57.2 °F - 44.6 °F 63% 30.17 in 20.0 mi ESE 13.8 mph 19.6 mph N/A   Mostly Cloudy
1:00 PM 57.2 °F - 44.6 °F 63% 30.16 in 20.0 mi SE 16.1 mph - N/A   Mostly Cloudy
2:00 PM 59.0 °F - 46.4 °F 63% 30.15 in 20.0 mi SE 19.6 mph - N/A   Mostly Cloudy
3:00 PM 57.2 °F - 46.4 °F 67% 30.14 in 20.0 mi SE 18.4 mph - N/A   Mostly Cloudy
4:00 PM 57.2 °F - 48.2 °F 72% 30.13 in 20.0 mi SE 19.6 mph - N/A   Mostly Cloudy
5:00 PM 57 °F - 45 °F 53% 30.12 in 19 mi SSE 15.0 mph - -   Partly Cloudy
5:00 PM 57.2 °F - 44.6 °F 63% 30.12 in 20.0 mi SSE 13.8 mph - N/A   Mostly Cloudy
6:00 PM 55.4 °F - 44.6 °F 67% 30.12 in 20.0 mi SE 16.1 mph - N/A   Overcast
7:00 PM 55.4 °F - 46.4 °F 72% 30.12 in 20.0 mi SE 11.5 mph - N/A   Overcast
8:00 PM 55.4 °F - 41.0 °F 58% 30.12 in 20.0 mi South 13.8 mph - N/A   Overcast
8:53 PM - - - N/A% - 20.0 mi SSE 4.6 mph - N/A Rain Light Rain
9:00 PM 53.6 °F - 42.8 °F 67% 30.12 in 15.0 mi SSE 4.6 mph - N/A Rain Light Rain
10:00 PM 53.6 °F - 42.8 °F 67% 30.12 in 15.0 mi SSE 8.1 mph - N/A Rain Light Rain
11:00 PM 52 °F - 45 °F 71% 30.12 in 15 mi SE 9.2 mph - - Rain Light Rain
11:00 PM 51.8 °F - 44.6 °F 76% 30.12 in 15.0 mi SE 9.2 mph - N/A Rain Light Rain